FW8111 Weather Reports


time (UTC)temp
F
wind
direction
speed
knots
gust
knots
rain 1hr
in
rain 24hr
in
rain mn
in
humidity
%
barometer
mb
20260503034004 77 271 0.9 2.6 0.00 0.00 0.00 82 1012.1
20260503033505 78 290 0.9 2.6 0.00 0.00 0.00 82 1012.1
20260503033004 78 285 0.9 2.6 0.00 0.00 0.00 82 1011.9
20260503032504 78 293 0.9 2.6 0.00 0.00 0.00 81 1011.8
20260503032004 78 270 0.9 1.7 0.00 0.00 0.00 81 1011.7
20260503031505 78 307 0.9 2.6 0.00 0.00 0.00 81 1011.9
20260503031004 78 282 1.7 5.2 0.00 0.00 0.00 80 1011.9
20260503030504 78 285 1.7 2.6 0.00 0.00 0.00 80 1011.9
20260503030005 78 289 0.0 2.6 0.00 0.00 0.00 80 1011.9
20260503025504 78 290 1.7 5.2 0.00 0.00 0.00 79 1011.9
20260503025004 79 299 1.7 4.3 0.00 0.00 0.00 79 1011.8
20260503024504 79 293 2.6 6.1 0.00 0.00 0.00 79 1011.8
20260503024004 79 292 1.7 5.2 0.00 0.00 0.00 78 1011.7
20260503023505 79 296 1.7 2.6 0.00 0.00 0.00 77 1011.8
20260503022504 80 292 1.7 2.6 0.00 0.00 0.00 76 1011.8
20260503022004 80 294 1.7 2.6 0.00 0.00 0.00 75 1011.8
20260503021004 80 279 3.5 6.1 0.00 0.00 0.00 74 1011.6
20260503020504 80 280 1.7 5.2 0.00 0.00 0.00 74 1011.5
20260503020004 80 299 1.7 5.2 0.00 0.00 0.00 73 1011.5
20260503015504 81 273 2.6 5.2 0.00 0.00 0.00 73 1011.6
20260503015004 81 287 1.7 5.2 0.00 0.00 0.00 72 1011.6
20260503014504 81 286 1.7 5.2 0.00 0.00 0.00 72 1011.6
20260503014005 81 281 2.6 7.0 0.00 0.00 0.00 71 1011.5
20260503013504 81 296 3.5 7.8 0.00 0.00 0.00 71 1011.5
20260503013005 81 281 2.6 6.1 0.00 0.00 0.00 70 1011.5
20260503012504 81 300 4.3 10.4 0.00 0.00 0.00 69 1011.4
20260503011504 81 294 2.6 6.1 0.00 0.00 0.00 68 1011.3
20260503010505 81 285 2.6 6.1 0.00 0.00 0.00 66 1011.0
20260503010004 82 298 1.7 7.8 0.00 0.00 0.00 66 1011.0
20260503005004 82 304 2.6 7.8 0.00 0.00 0.00 64 1010.8
20260503004504 82 284 2.6 7.8 0.00 0.00 0.00 64 1010.7
20260503004004 82 286 2.6 7.0 0.00 0.00 0.00 63 1010.8
20260503003505 82 282 3.5 7.8 0.00 0.00 0.00 62 1010.7
20260503003004 83 297 2.6 8.7 0.00 0.00 0.00 62 1010.5
20260503002504 83 283 4.3 8.7 0.00 0.00 0.00 61 1010.5
20260503002004 83 285 3.5 7.0 0.00 0.00 0.00 60 1010.4
20260503001504 83 283 5.2 10.4 0.00 0.00 0.00 59 1010.4
20260503000504 83 290 5.2 10.4 0.00 0.00 0.00 60 1010.3
20260503000004 83 270 1.7 5.2 0.00 0.00 0.00 61 1010.1
20260502235505 83 313 2.6 5.2 0.00 0.00 0.00 61 1010.0
20260502235005 84 280 3.5 7.8 0.00 0.00 0.00 59 1009.9
20260502234504 84 263 2.6 6.1 0.00 0.00 0.00 59 1009.8
20260502234004 84 262 2.6 4.3 0.00 0.00 0.00 58 1009.7
20260502233504 84 261 2.6 8.7 0.00 0.00 0.00 57 1009.7
20260502233004 85 266 4.3 10.4 0.00 0.00 0.00 56 1009.5
20260502232504 85 295 2.6 7.0 0.00 0.00 0.00 56 1009.5
20260502232005 85 278 4.3 7.8 0.00 0.00 0.00 55 1009.4
20260502231504 86 245 2.6 8.7 0.00 0.00 0.00 55 1009.3
20260502231004 86 279 4.3 8.7 0.00 0.00 0.00 53 1009.2
20260502230504 87 284 4.3 10.4 0.00 0.00 0.00 52 1009.0
20260502230004 87 260 5.2 10.4 0.00 0.00 0.00 53 1008.9
20260502225504 87 255 5.2 10.4 0.00 0.00 0.00 52 1008.8
20260502225005 87 292 4.3 7.8 0.00 0.00 0.00 53 1008.9
20260502224504 88 273 5.2 11.3 0.00 0.00 0.00 54 1008.9
20260502224004 88 239 2.6 10.4 0.00 0.00 0.00 52 1008.7
20260502223504 88 248 4.3 11.3 0.00 0.00 0.00 53 1008.7
20260502223004 89 240 5.2 10.4 0.00 0.00 0.00 51 1008.7
20260502222504 89 237 3.5 8.7 0.00 0.00 0.00 52 1008.7
20260502222005 89 272 4.3 11.3 0.00 0.00 0.00 53 1008.8
20260502221504 89 258 2.6 10.4 0.00 0.00 0.00 53 1008.8
20260502221004 89 241 5.2 10.4 0.00 0.00 0.00 53 1008.7
20260502220504 90 275 3.5 8.7 0.00 0.00 0.00 54 1008.7
20260502220004 90 293 5.2 11.3 0.00 0.00 0.00 52 1008.7
20260502215005 90 251 4.3 10.4 0.00 0.00 0.00 53 1008.6
20260502213504 90 288 3.5 13.0 0.00 0.00 0.00 53 1008.4
20260502213006 90 251 5.2 10.4 0.00 0.00 0.00 53 1008.3
20260502212504 91 271 7.0 11.3 0.00 0.00 0.00 51 1008.3
20260502211504 92 270 5.2 10.4 0.00 0.00 0.00 51 1008.3
20260502211004 92 269 2.6 10.4 0.00 0.00 0.00 48 1008.2
20260502210504 92 283 3.5 7.8 0.00 0.00 0.00 49 1008.2
20260502205504 92 232 4.3 8.7 0.00 0.00 0.00 48 1008.1
20260502205004 92 299 4.3 10.4 0.00 0.00 0.00 49 1008.0
20260502204504 93 224 4.3 10.4 0.00 0.00 0.00 48 1008.1
20260502203504 93 273 5.2 10.4 0.00 0.00 0.00 43 1008.1
20260502203004 93 288 5.2 10.4 0.00 0.00 0.00 45 1008.1
20260502202504 93 272 4.3 10.4 0.00 0.00 0.00 45 1008.2
20260502201504 93 243 5.2 11.3 0.00 0.00 0.00 47 1008.4
20260502201004 93 300 4.3 10.4 0.00 0.00 0.00 45 1008.5
20260502200504 93 252 4.3 10.4 0.00 0.00 0.00 45 1008.6
20260502195005 93 299 7.8 11.3 0.00 0.00 0.00 47 1008.8
20260502194504 93 279 5.2 18.2 0.00 0.00 0.00 48 1008.7
20260502194004 93 230 4.3 10.4 0.00 0.00 0.00 49 1008.8
20260502193504 93 292 4.3 11.3 0.00 0.00 0.00 49 1008.9
20260502193004 93 283 5.2 11.3 0.00 0.00 0.00 46 1009.0
20260502192505 94 282 7.8 13.9 0.00 0.00 0.00 46 1009.1
20260502192004 94 281 5.2 13.0 0.00 0.00 0.00 50 1009.0
20260502191004 92 262 5.2 11.3 0.00 0.00 0.00 52 1009.1
20260502190004 93 304 5.2 11.3 0.00 0.00 0.00 55 1009.2
20260502185004 93 286 5.2 10.4 0.00 0.00 0.00 52 1009.2
20260502184504 93 251 2.6 8.7 0.00 0.00 0.00 54 1009.2
20260502184004 93 230 5.2 12.2 0.00 0.00 0.00 53 1009.2
20260502183504 91 276 6.1 11.3 0.00 0.00 0.00 54 1009.2
20260502182504 92 258 6.1 11.3 0.00 0.00 0.00 59 1009.3
20260502181504 92 251 6.1 11.3 0.00 0.00 0.00 54 1009.5
20260502181004 92 252 7.8 13.9 0.00 0.00 0.00 56 1009.4
20260502180504 92 236 6.1 15.6 0.00 0.00 0.00 55 1009.5
20260502170504 92 279 8.7 13.9 0.00 0.00 0.00 60 1009.7
20260502164004 90 218 7.8 13.9 0.00 0.00 0.00 66 1010.0
20260502163505 89 290 5.2 13.0 0.00 0.00 0.00 65 1010.0
20260502163004 90 269 3.5 13.9 0.00 0.00 0.00 64 1010.1
20260502162004 89 264 4.3 10.4 0.00 0.00 0.00 63 1010.1
20260502161504 91 297 2.6 10.4 0.00 0.00 0.00 65 1010.1
20260502161004 90 266 2.6 7.8 0.00 0.00 0.00 67 1010.1
20260502160504 91 241 2.6 8.7 0.00 0.00 0.00 64 1010.1
20260502152003 89 236 5.2 11.3 0.00 0.00 0.00 68 1010.3
20260502151504 89 217 5.2 13.0 0.00 0.00 0.00 69 1010.4
20260502151004 89 246 5.2 13.0 0.00 0.00 0.00 70 1010.3
20260502150504 88 241 4.3 12.2 0.00 0.00 0.00 70 1010.2
20260502130504 84 253 2.6 7.8 0.00 0.00 0.00 80 1010.1
20260502123504 82 219 2.6 7.0 0.00 0.00 0.00 83 1010.1
20260502122504 81 231 1.7 4.3 0.00 0.00 0.00 85 1010.1
20260502122004 81 228 1.7 4.3 0.00 0.00 0.00 87 1010.1
20260502121504 80 214 0.9 5.2 0.00 0.00 0.00 88 1010.1
20260502121004 79 243 0.9 2.6 0.00 0.00 0.00 89 1010.0
20260502120504 78 160 0.9 4.3 0.00 0.00 0.00 91 1009.9
20260502115504 77 216 0.9 2.6 0.00 0.00 0.00 92 1009.9
20260502115004 77 232 1.7 6.1 0.00 0.00 0.00 92 1009.8
20260502114504 77 179 0.0 2.6 0.00 0.00 0.00 93 1009.9
20260502114003 77 205 0.0 1.7 0.00 0.00 0.00 93 1009.9
20260502113504 76 270 0.9 2.6 0.00 0.00 0.00 93 1009.8
20260502113004 76 137 0.0 1.7 0.00 0.00 0.00 94 1009.7
20260502112504 76 218 0.9 5.2 0.00 0.00 0.00 94 1009.7
20260502112004 76 215 0.9 4.3 0.00 0.00 0.00 94 1009.8
20260502111504 75 222 0.9 2.6 0.00 0.00 0.00 94 1009.8
20260502111004 75 240 0.9 4.3 0.00 0.00 0.00 94 1009.8
20260502110504 75 208 0.9 4.3 0.00 0.00 0.00 94 1009.9
20260502110004 75 197 0.9 1.7 0.00 0.00 0.00 94 1009.8
20260502105504 75 210 0.9 2.6 0.00 0.00 0.00 94 1009.7
20260502104504 75 202 0.9 1.7 0.00 0.00 0.00 94 1009.6
20260502104004 75 209 0.9 2.6 0.00 0.00 0.00 94 1009.7
20260502103504 75 220 0.0 2.6 0.00 0.00 0.00 94 1009.8
20260502103003 75 175 0.9 2.6 0.00 0.00 0.00 94 1009.8
20260502102504 75 230 0.0 1.7 0.00 0.00 0.00 94 1009.7
20260502102004 75 225 0.0 2.6 0.00 0.00 0.00 94 1009.8
20260502101505 75 143 0.0 0.9 0.00 0.00 0.00 94 1009.8
20260502101004 75 136 0.0 0.9 0.00 0.00 0.00 94 1009.8
20260502100504 75 209 0.0 0.9 0.00 0.00 0.00 94 1009.8
20260502091504 75 208 0.0 2.6 0.00 0.00 0.00 94 1009.6
20260502071505 73 246 0.0 0.0 0.00 0.00 0.00 94 1009.6
20260502071005 73 246 0.0 0.0 0.00 0.00 0.00 93 1009.7
20260502070506 73 246 0.0 0.0 0.00 0.00 0.00 93 1009.7
20260502070005 73 246 0.0 0.0 0.00 0.00 0.00 93 1009.6
20260502065505 73 246 0.0 0.0 0.00 0.00 0.00 93 1009.6
20260502065005 72 246 0.0 0.0 0.00 0.00 0.00 93 1009.6
20260502064505 72 246 0.0 0.0 0.00 0.00 0.00 93 1009.7
20260502064005 72 246 0.0 0.0 0.00 0.00 0.00 93 1009.7
20260502063505 72 246 0.0 0.0 0.00 0.00 0.00 93 1009.8
20260502063005 72 246 0.0 0.0 0.00 0.00 0.00 93 1009.8
20260502062505 72 246 0.0 0.0 0.00 0.00 0.00 93 1009.8
20260502062006 72 246 0.0 0.0 0.00 0.00 0.00 93 1009.8
20260502061005 72 246 0.0 0.0 0.00 0.00 0.00 93 1009.9
20260502060006 72 246 0.0 0.0 0.00 0.00 0.00 93 1009.9
20260502055505 72 246 0.0 0.0 0.00 0.00 0.00 92 1009.9
20260502055006 72 246 0.0 0.0 0.00 0.00 0.00 93 1009.8
20260502054506 72 246 0.0 0.0 0.00 0.00 0.00 92 1009.9
20260502054005 72 246 0.0 0.0 0.00 0.00 0.00 92 1009.9
20260502053506 72 246 0.0 0.0 0.00 0.00 0.00 93 1009.9
20260502053005 72 246 0.0 0.0 0.00 0.00 0.00 92 1010.0
20260502052505 72 246 0.0 0.0 0.00 0.00 0.00 92 1010.0
20260502052005 72 246 0.0 0.0 0.00 0.00 0.00 92 1010.0
20260502051505 72 246 0.0 0.0 0.00 0.00 0.00 92 1010.1
20260502051005 72 246 0.0 0.0 0.00 0.00 0.00 92 1010.1
20260502050506 72 246 0.0 0.0 0.00 0.00 0.00 92 1010.2
20260502050005 72 246 0.0 0.0 0.00 0.00 0.00 92 1010.3
20260502044505 72 246 0.0 0.0 0.00 0.00 0.00 91 1010.6
20260502044005 73 246 0.0 0.0 0.00 0.00 0.00 91 1010.5
20260502043505 73 246 0.0 0.0 0.00 0.00 0.00 91 1010.6
20260502043006 73 246 0.0 0.9 0.00 0.00 0.00 91 1010.6
20260502042505 73 246 0.0 0.0 0.00 0.00 0.00 91 1010.7
20260502042005 73 246 0.0 0.9 0.00 0.00 0.00 91 1010.7
20260502041505 73 246 0.0 0.0 0.00 0.00 0.00 91 1010.6
20260502040506 73 246 0.0 0.0 0.00 0.00 0.00 90 1010.6
20260502040005 73 246 0.0 0.0 0.00 0.00 0.00 91 1010.6
20260502035505 73 246 0.0 0.0 0.00 0.00 0.00 90 1010.7
20260502035005 73 246 0.0 0.0 0.00 0.00 0.00 90 1010.7
20260502034505 74 246 0.0 0.0 0.00 0.00 0.00 90 1010.6